カタログに戻る

STARLINK-1329

運用中通信VLEO
NORAD 45531·PAYLOAD·🇺🇸 United States

打ち上げ Apr 22, 2020 から Cape Canaveral Space Force Station

Loading…

次のパス (今後24時間)

TLE

最新Source: CelesTrak SupGP

元期: Sep 14, 2026, 22:10 UTC

1 45531C 20025A   26257.92409722  .00217610  00000+0  58293-3 0  2577
2 45531  53.0319 218.9840 0004558  84.0553  39.8696 15.93597510    17

AllMySatでSTARLINK-1329をリアルタイム追跡

Download on the App Store